H-3 R/B, 62877

Orbit data source: Space-Track

H-3 R/B, 62877 is space debris in HEO originally from a launch on Sun, 02 Feb 2025 UTC launched from the Tanegashima Space Center (TNSTA). Debris objects in space refer to the collection of defunct objects orbiting the Earth. Examples of debris include non-operational satellites, rocket bodies, and fragments generated from explosions, collisions, or faulty payload assembly.

Loading next visibility...
Identifier
62877, 2025-023B
Orbit
HEO
Country
Flag of JPJP / JPN
Related business
Manufacturer
MHI Tobishima
Mission
Spacecraft
Bus & Motor
H-2A STAGE 2, Unknown motor
Mass
2,500 kg wet, 2,500 kg dry
Launch date (UTC)
2025-02-02 (2 years ago)
Launch vehicle
Unknown
Launch site
Tanegashima Space Center (TNSTA)
Object type
Payload
Rocket body
Debris
Shape & HBR
Cyl, 6.1 m
Radar Cross Section
55.543 m², Large (>1 m²)

Expand to show TLE details & history
Last TLE update: 12 hours ago

TLE from 12 hours ago
0 H-3 R/B
1 62877U 25023B   26264.39830856  .00000686  00000-0  55935-3 0  9994
2 62877  21.4491  63.0278 7195536 244.8548  27.7381  2.36664572 13980
Epoch: 2026-09-21T09:33Z
TLE epoch observation values (Epoch: 2026-09-21T09:33:33.859Z)
Latitude
0.00002°
Longitude
-80.64351°
Altitude
10,134.739 km
Speed
5.614 km/s
True Right ascension
04h 12m 06s
True Declination
0° 00' 00"
Sunlit
Object was in daylight at epoch
Visualization orbit readout
Latitude
Unknown
Longitude
Unknown
Altitude
Unknown
Speed
Unknown
Apparent Right ascension
Unknown
Apparent Declination
Unknown
Sunlit
N/A
Visualization observer readout
Local Sidereal Time
14:27:43
Azimuth
Unknown
Elevation
Unknown
Doppler factor
Unknown
Orbital elements
Apogee altitude
34,530 km
Perigee altitude
293.676 km
Semi-major axis
23,789.975 km
Eccentricity
0.71955
Inclination
21.4491°
RAAN
63.0278°
Arg. of periapsis
244.8548°
True anomaly
115.40476°
Mean anomaly
27.7381°
Eccentric anomaly
65.14754°
Mean motion
0.5915 °/min
Orbital period
608.63 mins
BSTAR
0.00055935
Loading maneuver chart data...
Computing Atmospheric mass density...
Loading historical data...
Loading historical data...
Loading historical data...
Loading historical data...
Loading historical data...
Loading historical data...
Loading historical data...
Other satellites on launch #23 in the year 2025 (2025-02-02 UTC)

Documentation

Showing up to 5 results
|